Location: Slemon Park
(46.4340°N, 63.8219°W)
Time: 14:58:28
(UTC-03:00)

ISS - All Passes

Search period start: 20 October 2014 00:00
Search period end: 30 October 2014 00:00
Orbit: 413 x 416 km, 51.6° (Epoch: 20 October)

Date Brightness Start Highest point End Pass type
(mag) Time Alt. Az. Time Alt. Az. Time Alt. Az.
20 Oct - 14:18:59 10° SSE 14:20:27 12° SE 14:21:56 10° ESE daylight
20 Oct - 15:53:19 10° SW 15:56:39 73° SSE 16:00:00 10° ENE daylight
20 Oct - 17:30:25 10° W 17:33:34 36° N 17:36:42 10° ENE daylight
20 Oct - 19:07:39 10° WNW 19:10:47 36° N 19:13:54 10° ENE visible
20 Oct - 20:44:21 10° WNW 20:47:43 79° SSW 20:51:03 10° ESE visible
20 Oct - 22:22:13 10° WSW 22:23:56 14° SW 22:25:39 10° SSW night (unlit)
21 Oct - 15:04:29 10° SW 15:07:42 46° SE 15:10:55 10° ENE daylight
21 Oct - 16:41:13 10° W 16:44:27 44° NNW 16:47:40 10° ENE daylight
21 Oct - 18:18:33 10° WNW 18:21:38 32° N 18:24:42 10° ENE daylight
21 Oct - 19:55:20 10° WNW 19:58:41 71° NNE 20:02:01 10° ESE visible
21 Oct - 21:32:29 10° W 21:35:07 22° SW 21:37:45 10° S visible
22 Oct - 14:15:51 10° SSW 14:18:46 29° SE 14:21:42 10° E daylight
22 Oct - 15:52:01 10° WSW 15:55:19 57° NNW 15:58:38 10° ENE daylight
22 Oct - 17:29:23 10° WNW 17:32:26 32° N 17:35:30 10° ENE daylight
22 Oct - 19:06:18 10° WNW 19:09:35 51° NNE 19:12:52 10° E visible
22 Oct - 20:43:08 10° WNW 20:46:13 34° SW 20:49:16 10° SSE visible
23 Oct - 13:27:30 10° S 13:29:51 18° SE 13:32:13 10° E daylight
23 Oct - 15:02:52 10° WSW 15:06:12 82° NNW 15:09:34 10° ENE daylight
23 Oct - 16:40:08 10° WNW 16:43:13 33° N 16:46:18 10° ENE daylight
23 Oct - 18:17:13 10° WNW 18:20:25 40° NNE 18:23:36 10° E daylight
23 Oct - 19:53:56 10° WNW 19:57:13 55° SSW 20:00:29 10° SE visible
24 Oct - 12:40:00 10° SSE 12:40:58 11° SE 12:41:56 10° ESE daylight
24 Oct - 14:13:48 10° SW 14:17:06 66° SSE 14:20:26 10° ENE daylight
24 Oct - 15:50:49 10° W 15:53:58 38° NNW 15:57:08 10° ENE daylight
24 Oct - 17:28:04 10° WNW 17:31:10 35° N 17:34:17 10° ENE daylight
24 Oct - 19:04:46 10° WNW 19:08:08 86° SSW 19:11:28 10° ESE visible
24 Oct - 20:42:23 10° W 20:44:24 15° SW 20:46:23 10° S visible
25 Oct - 13:24:52 10° SW 13:28:01 41° SE 13:31:12 10° ENE daylight
25 Oct - 15:01:29 10° W 15:04:43 46° NNW 15:07:58 10° ENE daylight
25 Oct - 16:38:49 10° WNW 16:41:53 32° N 16:44:56 10° ENE daylight
25 Oct - 18:15:37 10° WNW 18:18:57 65° NNE 18:22:16 10° ESE daylight
25 Oct - 19:52:40 10° W 19:55:25 24° SW 19:58:10 10° SSE visible
26 Oct - 12:36:09 10° SSW 12:38:58 26° SE 12:41:47 10° E daylight
26 Oct - 14:12:09 10° WSW 14:15:28 62° NNW 14:18:47 10° ENE daylight
26 Oct - 15:49:30 10° WNW 15:52:33 32° N 15:55:36 10° ENE daylight
26 Oct - 17:26:26 10° WNW 17:29:42 48° NNE 17:32:57 10° E daylight
26 Oct - 19:03:13 10° WNW 19:06:22 38° SW 19:09:29 10° SSE visible
27 Oct - 11:47:48 10° S 11:49:56 16° SE 11:52:03 10° E daylight
27 Oct - 13:22:53 10° WSW 13:26:13 90° NNW 13:29:34 10° ENE daylight
27 Oct - 15:00:05 10° WNW 15:03:11 34° N 15:06:17 10° ENE daylight
27 Oct - 16:37:12 10° WNW 16:40:22 38° NNE 16:43:32 10° E daylight
27 Oct - 18:13:54 10° WNW 18:17:12 62° SSW 18:20:30 10° SE daylight
27 Oct - 19:52:52 10° SW 19:53:18 10° SW 19:53:44 10° SW visible
28 Oct - 12:33:43 10° SW 12:36:59 59° SSE 12:40:17 10° ENE daylight
28 Oct - 14:10:38 10° W 14:13:48 39° NNW 14:16:58 10° ENE daylight
28 Oct - 15:47:54 10° WNW 15:50:59 34° N 15:54:04 10° ENE daylight
28 Oct - 17:24:37 10° WNW 17:27:58 86° NNE 17:31:18 10° ESE daylight
28 Oct - 19:02:02 10° W 19:04:16 17° SW 19:06:31 10° S visible
29 Oct - 11:44:42 10° SSW 11:47:46 36° SE 11:50:52 10° ENE daylight
29 Oct - 13:21:09 10° W 13:24:24 49° NNW 13:27:40 10° ENE daylight
29 Oct - 14:58:30 10° WNW 15:01:33 32° N 15:04:35 10° ENE daylight
29 Oct - 16:35:19 10° WNW 16:38:38 60° NNE 16:41:56 10° ESE daylight
29 Oct - 18:12:16 10° W 18:15:09 27° SW 18:18:01 10° SSE daylight
